Liberty, KS

2:56 PM CST on January 20, 2017 (GMT -0600)
Coffeyville Municipal

Weather History for KCFV - January, 2013

Change the Weather History Date:

Thursday, January 3, 2013

  Actual Average Record
Temperature  
Mean Temperature 30 °F -  
Max Temperature 42 °F 43 °F 72 °F (1997)
Min Temperature 18 °F 24 °F 1 °F (2002)
Degree Days  
Heating Degree Days 35    
Moisture  
Dew Point 22 °F    
Average Humidity 78    
Maximum Humidity 92    
Minimum Humidity 49    
Precipitation  
Precipitation 0.00 in - - ()
Sea Level Pressure  
Sea Level Pressure 30.43 in    
Wind  
Wind Speed 3 mph (NW)    
Max Wind Speed 10 mph    
Max Gust Speed -    
Visibility 9 miles    
Events      
Averages and records for this station are not official NWS values.
T = Trace of Precipitation, MM = Missing Value Source: NWS Daily Summary

Daily Weather History Graph

Daily Weather History Graph

Search for Another Location

Airport or City:

Trip Planner

Search our weather history database for the weather conditions in past years. The results will help you decide how hot, cold, wet, or windy it might be!

Date:

Astronomy

Jan. 03, 2013 Rise Set
Actual Time 7:36 AM CST 5:18 PM CST
Civil Twilight 7:07 AM CST 5:46 PM CST
Nautical Twilight 6:34 AM CST 6:19 PM CST
Astronomical Twilight 6:03 AM CST 6:50 PM CST
Moon 11:44 PM CST (1/3) 10:57 AM CST (1/3)
Length of Visible Light 10h 39m
Length of Day
9h 41m
Waning Gibbous, 65% of the Moon is Illuminated
Jan 3
Waning Gibbous
Jan 4
Last Quarter
Jan 11
New
Jan 18
First Quarter
Jan 26
Full

Hourly Weather History & Observations

Time (CST) Temp. Windchill Dew Point Humidity Pressure Visibility Wind Dir Wind Speed Gust Speed Precip Events Conditions
1:52 AM 23.0 °F 17.0 °F 19.9 °F 88% 30.32 in 9.0 mi NNW 4.6 mph - N/A   Clear
2:52 AM 21.0 °F 16.2 °F 19.0 °F 92% 30.35 in 8.0 mi South 3.5 mph - N/A   Clear
3:52 AM 19.9 °F 14.9 °F 17.1 °F 89% 30.36 in 7.0 mi SSW 3.5 mph - N/A   Clear
4:52 AM 21.0 °F 16.2 °F 18.0 °F 88% 30.38 in 6.0 mi South 3.5 mph - N/A   Clear
5:52 AM 21.0 °F - 17.1 °F 85% 30.39 in 6.0 mi Calm Calm - N/A   Partly Cloudy
6:52 AM 19.9 °F - 17.1 °F 89% 30.41 in 4.0 mi Calm Calm - N/A   Clear
7:52 AM 18.0 °F - 15.1 °F 88% 30.43 in 5.0 mi Calm Calm - N/A   Clear
8:52 AM 25.0 °F - 21.9 °F 88% 30.45 in 6.0 mi Calm Calm - N/A   Clear
9:52 AM 30.9 °F 27.5 °F 26.1 °F 82% 30.47 in 10.0 mi NNW 3.5 mph - N/A   Clear
10:52 AM 36.0 °F 33.3 °F 27.0 °F 70% 30.48 in 10.0 mi NNW 3.5 mph - N/A   Clear
11:52 AM 39.9 °F - 27.0 °F 60% 30.46 in 10.0 mi Calm Calm - N/A   Clear
12:52 PM 42.1 °F 40.2 °F 24.1 °F 49% 30.42 in 10.0 mi Variable 3.5 mph - N/A   Clear
2:52 PM 42.1 °F 36.1 °F 26.1 °F 53% 30.41 in 10.0 mi NNW 10.4 mph - N/A   Overcast
3:52 PM 39.9 °F 35.1 °F 27.0 °F 60% 30.43 in 10.0 mi NW 6.9 mph - N/A   Overcast
4:52 PM 37.0 °F 29.8 °F 26.1 °F 65% 30.44 in 10.0 mi NNW 10.4 mph - N/A   Overcast
5:52 PM 33.1 °F 26.9 °F 24.1 °F 70% 30.46 in 10.0 mi NNW 6.9 mph - N/A   Clear
6:52 PM 30.0 °F 24.1 °F 23.0 °F 75% 30.48 in 10.0 mi NNW 5.8 mph - N/A   Clear
7:52 PM 28.9 °F - 23.0 °F 78% 30.48 in 10.0 mi Calm Calm - N/A   Clear
8:52 PM 27.0 °F 21.6 °F 23.0 °F 85% 30.48 in 10.0 mi NNW 4.6 mph - N/A   Clear
9:52 PM 25.0 °F 20.7 °F 19.9 °F 81% 30.47 in 10.0 mi North 3.5 mph - N/A   Clear
10:52 PM 24.1 °F - 19.9 °F 84% 30.47 in 10.0 mi Calm Calm - N/A   Clear
11:52 PM 21.0 °F - 18.0 °F 88% 30.48 in 10.0 mi Calm Calm - N/A   Clear